Radiation Dose at Monitoring Post of Fukushima Daini Nuclear Power Station
Date,Time,MP-1(microSv/h),MP-2(microSv/h),MP-3(microSv/h),MP-4(microSv/h),MP-5(microSv/h),MP-6(microSv/h),MP-7(microSv/h),Wind Direction,Wind Velocity(m/s),Rain
2023/06/16,00:00,0.141,0.129,0.198,0.191,0.207,0.115,0.076,north-northwest,5.4,Yes
2023/06/16,00:10,0.140,0.128,0.199,0.192,0.204,0.115,0.077,north-northwest,5.0,Yes
2023/06/16,00:20,0.141,0.128,0.198,0.190,0.206,0.113,0.076,north-northwest,4.4,Yes
2023/06/16,00:30,0.140,0.129,0.199,0.192,0.203,0.114,0.078,north-northwest,4.5,Yes
2023/06/16,00:40,0.141,0.129,0.198,0.190,0.205,0.115,0.077,north-northwest,3.5,Yes
2023/06/16,00:50,0.140,0.128,0.199,0.192,0.206,0.114,0.077,north-northwest,3.7,Yes
2023/06/16,01:00,0.139,0.128,0.197,0.192,0.205,0.114,0.077,north-northwest,4.8,Yes
2023/06/16,01:10,0.139,0.129,0.198,0.190,0.207,0.113,0.075,north-northwest,4.6,Yes
2023/06/16,01:20,0.140,0.127,0.198,0.191,0.204,0.112,0.077,north-northwest,4.9,Yes
2023/06/16,01:30,0.139,0.128,0.198,0.189,0.205,0.114,0.076,northwest,5.3,Yes
2023/06/16,01:40,0.138,0.128,0.198,0.190,0.203,0.114,0.076,north-northwest,5.5,Yes
2023/06/16,01:50,0.138,0.128,0.194,0.187,0.205,0.112,0.077,north-northwest,5.7,Yes
2023/06/16,02:00,0.137,0.127,0.196,0.189,0.204,0.113,0.076,northwest,5.9,Yes
2023/06/16,02:10,0.139,0.128,0.196,0.189,0.204,0.113,0.076,northwest,6.1,Yes
2023/06/16,02:20,0.138,0.129,0.198,0.189,0.206,0.113,0.076,northwest,6.0,Yes
2023/06/16,02:30,0.139,0.127,0.196,0.191,0.203,0.113,0.077,northwest,5.5,Yes
2023/06/16,02:40,0.139,0.129,0.198,0.190,0.207,0.113,0.076,north-northwest,6.4,Yes
2023/06/16,02:50,0.139,0.128,0.198,0.191,0.205,0.113,0.077,northwest,6.3,Yes
2023/06/16,03:00,0.139,0.129,0.197,0.189,0.205,0.114,0.076,northwest,6.8,Yes
2023/06/16,03:10,0.138,0.129,0.195,0.190,0.205,0.113,0.077,northwest,6.2,Yes
2023/06/16,03:20,0.138,0.129,0.196,0.189,0.206,0.113,0.077,northwest,6.0,Yes
2023/06/16,03:30,0.137,0.128,0.195,0.190,0.204,0.113,0.077,northwest,6.1,Yes
2023/06/16,03:40,0.137,0.130,0.195,0.188,0.203,0.113,0.077,northwest,6.3,Yes
2023/06/16,03:50,0.138,0.129,0.195,0.189,0.206,0.113,0.077,northwest,6.3,Yes
2023/06/16,04:00,0.138,0.131,0.195,0.191,0.204,0.114,0.078,northwest,5.8,Yes
2023/06/16,04:10,0.139,0.130,0.197,0.190,0.207,0.115,0.079,northwest,5.5,Yes
2023/06/16,04:20,0.141,0.131,0.195,0.192,0.206,0.116,0.081,northwest,6.6,Yes
2023/06/16,04:30,0.141,0.132,0.198,0.192,0.208,0.116,0.080,northwest,6.6,Yes
2023/06/16,04:40,0.140,0.133,0.197,0.193,0.208,0.118,0.081,northwest,6.6,Yes
2023/06/16,04:50,0.142,0.133,0.198,0.192,0.207,0.118,0.081,northwest,6.8,Yes
2023/06/16,05:00,0.141,0.134,0.199,0.194,0.210,0.116,0.082,northwest,6.2,Yes
2023/06/16,05:10,0.142,0.133,0.199,0.194,0.207,0.116,0.080,northwest,5.7,Yes
2023/06/16,05:20,0.140,0.131,0.197,0.193,0.209,0.115,0.080,north-northwest,5.3,Yes
2023/06/16,05:30,0.139,0.132,0.196,0.191,0.205,0.114,0.080,northwest,5.7,Yes
2023/06/16,05:40,0.139,0.131,0.195,0.189,0.206,0.113,0.080,west-southwest,6.3,Yes
2023/06/16,05:50,0.138,0.132,0.194,0.190,0.205,0.112,0.081,west-northwest,4.1,Yes
2023/06/16,06:00,0.139,0.129,0.194,0.189,0.205,0.114,0.080,-,CALM,Yes
2023/06/16,06:10,0.138,0.132,0.193,0.191,0.207,0.113,0.081,northwest,5.8,Yes
2023/06/16,06:20,0.138,0.132,0.194,0.188,0.204,0.114,0.079,-,CALM,Yes
2023/06/16,06:30,0.138,0.132,0.193,0.190,0.207,0.114,0.080,-,CALM,Yes
2023/06/16,06:40,0.139,0.133,0.197,0.190,0.206,0.115,0.081,northwest,6.8,Yes
2023/06/16,06:50,0.140,0.134,0.197,0.194,0.210,0.116,0.083,north-northwest,4.4,Yes
2023/06/16,07:00,0.141,0.133,0.198,0.196,0.209,0.115,0.082,north-northwest,0.9,Yes
2023/06/16,07:10,0.142,0.133,0.197,0.194,0.209,0.116,0.082,northwest,2.1,Yes
2023/06/16,07:20,0.141,0.134,0.198,0.196,0.210,0.116,0.083,north-northwest,2.9,Yes
2023/06/16,07:30,0.143,0.133,0.198,0.195,0.208,0.115,0.082,north-northwest,2.4,Yes
2023/06/16,07:40,0.142,0.135,0.198,0.196,0.211,0.116,0.083,northwest,2.5,Yes
2023/06/16,07:50,0.143,0.133,0.200,0.195,0.209,0.116,0.083,northwest,2.0,Yes
2023/06/16,08:00,0.142,0.135,0.197,0.194,0.208,0.116,0.081,northwest,3.1,Yes
2023/06/16,08:10,0.141,0.133,0.198,0.196,0.210,0.115,0.080,north-northwest,2.9,Yes
2023/06/16,08:20,0.142,0.132,0.198,0.193,0.206,0.114,0.079,north,4.0,Yes
2023/06/16,08:30,0.140,0.132,0.195,0.194,0.208,0.114,0.079,north,2.5,Yes
2023/06/16,08:40,0.141,0.130,0.197,0.193,0.208,0.113,0.079,north-northeast,0.9,Yes
2023/06/16,08:50,0.140,0.130,0.195,0.191,0.205,0.112,0.077,north-northeast,1.5,Yes
2023/06/16,09:00,0.138,0.128,0.195,0.193,0.206,0.111,0.076,north,2.6,Yes
2023/06/16,09:10,0.140,0.128,0.194,0.192,0.206,0.110,0.076,north,2.7,No
2023/06/16,09:20,0.139,0.128,0.193,0.189,0.203,0.109,0.074,north-northwest,3.8,No
2023/06/16,09:30,0.137,0.126,0.191,0.189,0.203,0.109,0.074,north-northwest,2.6,No
2023/06/16,09:40,0.137,0.126,0.192,0.187,0.202,0.110,0.074,northwest,1.0,No
2023/06/16,09:50,0.138,0.125,0.192,0.187,0.205,0.109,0.074,north,1.8,No
2023/06/16,10:00,0.136,0.126,0.192,0.188,0.204,0.109,0.073,north-northwest,2.9,No
2023/06/16,10:10,0.136,0.126,0.195,0.191,0.202,0.108,0.072,north-northwest,2.7,No
2023/06/16,10:20,0.137,0.125,0.196,0.190,0.200,0.109,0.073,northwest,3.5,No
2023/06/16,10:30,0.138,0.125,0.194,0.189,0.202,0.109,0.073,northwest,3.9,No
2023/06/16,10:40,0.137,0.125,0.193,0.188,0.205,0.108,0.072,west-northwest,4.7,No
2023/06/16,10:50,0.137,0.125,0.196,0.191,0.203,0.108,0.072,northwest,4.5,Yes
2023/06/16,11:00,0.138,0.124,0.196,0.190,0.201,0.110,0.073,west-northwest,4.8,Yes
2023/06/16,11:10,0.138,0.125,0.195,0.190,0.203,0.111,0.074,west-northwest,5.1,Yes
2023/06/16,11:20,0.138,0.127,0.198,0.192,0.208,0.112,0.076,west-northwest,8.5,Yes
2023/06/16,11:30,0.141,0.129,0.201,0.194,0.206,0.113,0.078,west-northwest,11.1,Yes
2023/06/16,11:40,0.142,0.132,0.200,0.194,0.210,0.114,0.077,west-northwest,11.1,Yes
2023/06/16,11:50,0.145,0.131,0.203,0.197,0.209,0.115,0.079,west-northwest,12.0,Yes
2023/06/16,12:00,0.145,0.135,0.203,0.198,0.210,0.118,0.080,west-northwest,12.6,Yes
2023/06/16,12:10,0.146,0.134,0.204,0.199,0.212,0.117,0.081,west-northwest,11.5,Yes
2023/06/16,12:20,0.148,0.136,0.205,0.199,0.210,0.118,0.083,west-northwest,10.3,Yes
2023/06/16,12:30,0.147,0.135,0.204,0.198,0.211,0.117,0.081,west-northwest,8.6,Yes
2023/06/16,12:40,0.147,0.134,0.203,0.197,0.207,0.117,0.080,west-northwest,10.1,Yes
2023/06/16,12:50,0.145,0.132,0.202,0.196,0.209,0.115,0.078,northwest,7.4,Yes
2023/06/16,13:00,0.145,0.132,0.201,0.196,0.206,0.113,0.078,north-northwest,6.2,Yes
2023/06/16,13:10,0.143,0.131,0.199,0.194,0.205,0.113,0.077,north-northwest,7.1,Yes
2023/06/16,13:20,0.142,0.129,0.200,0.193,0.206,0.113,0.076,north-northwest,5.5,Yes
2023/06/16,13:30,0.141,0.129,0.199,0.192,0.205,0.112,0.076,northwest,5.8,Yes
2023/06/16,13:40,0.140,0.129,0.197,0.191,0.205,0.113,0.074,northwest,6.3,No
2023/06/16,13:50,0.141,0.128,0.199,0.192,0.206,0.112,0.075,west-northwest,7.6,No
2023/06/16,14:00,0.139,0.128,0.196,0.190,0.203,0.111,0.074,northwest,7.3,No
2023/06/16,14:10,0.139,0.126,0.197,0.190,0.204,0.110,0.073,northwest,7.4,No
2023/06/16,14:20,0.140,0.126,0.197,0.192,0.204,0.109,0.073,northwest,8.7,No
2023/06/16,14:30,0.139,0.127,0.196,0.190,0.202,0.110,0.073,northwest,7.5,No
2023/06/16,14:40,0.138,0.126,0.196,0.188,0.202,0.110,0.072,northwest,7.6,No
2023/06/16,14:50,0.139,0.125,0.199,0.191,0.206,0.110,0.073,northwest,7.9,No
2023/06/16,15:00,0.139,0.126,0.196,0.189,0.203,0.110,0.073,northwest,7.4,No
2023/06/16,15:10,0.138,0.126,0.196,0.188,0.202,0.110,0.072,northwest,7.4,No
2023/06/16,15:20,0.137,0.125,0.195,0.188,0.201,0.109,0.072,northwest,7.8,No
2023/06/16,15:30,0.139,0.125,0.198,0.191,0.201,0.110,0.072,northwest,7.3,No
2023/06/16,15:40,0.138,0.126,0.197,0.190,0.204,0.110,0.072,west-northwest,7.5,No
2023/06/16,15:50,0.138,0.125,0.196,0.189,0.204,0.109,0.072,west-northwest,7.9,No
2023/06/16,16:00,0.136,0.125,0.195,0.189,0.202,0.109,0.073,northwest,7.5,No
2023/06/16,16:10,0.138,0.125,0.198,0.190,0.202,0.110,0.072,west-northwest,5.9,No
2023/06/16,16:20,0.139,0.126,0.198,0.191,0.201,0.111,0.072,west-northwest,5.7,No
2023/06/16,16:30,0.139,0.126,0.196,0.189,0.203,0.109,0.072,west-northwest,6.2,No
2023/06/16,16:40,0.137,0.125,0.198,0.190,0.205,0.109,0.071,west-northwest,6.7,No
2023/06/16,16:50,0.137,0.126,0.198,0.191,0.205,0.110,0.072,northwest,7.1,No
2023/06/16,17:00,0.138,0.126,0.197,0.190,0.204,0.109,0.073,northwest,8.2,No
2023/06/16,17:10,0.139,0.125,0.198,0.190,0.202,0.110,0.072,northwest,7.2,No
2023/06/16,17:20,0.139,0.125,0.198,0.191,0.202,0.110,0.072,northwest,7.4,No
2023/06/16,17:30,0.138,0.127,0.197,0.189,0.202,0.110,0.072,west-northwest,7.6,No
2023/06/16,17:40,0.139,0.127,0.199,0.191,0.202,0.111,0.072,west-northwest,8.1,No
2023/06/16,17:50,-,-,-,-,-,-,-,-,-,-
2023/06/16,18:00,0.138,0.127,0.197,0.190,0.206,0.110,0.073,north-northwest,3.6,No
2023/06/16,18:10,0.138,0.125,0.199,0.192,0.204,0.110,0.071,north,3.6,No
2023/06/16,18:20,0.138,0.126,0.197,0.191,0.202,0.110,0.071,north-northwest,4.6,No
2023/06/16,18:30,0.139,0.127,0.198,0.189,0.207,0.110,0.072,north-northwest,4.7,No
2023/06/16,18:40,0.139,0.126,0.198,0.191,0.204,0.111,0.072,northwest,4.2,No
2023/06/16,18:50,0.138,0.127,0.198,0.190,0.204,0.110,0.072,northwest,4.2,No
2023/06/16,19:00,0.140,0.127,0.199,0.191,0.205,0.111,0.071,northwest,3.5,No
2023/06/16,19:10,0.139,0.125,0.197,0.191,0.203,0.111,0.072,northwest,3.6,No
2023/06/16,19:20,0.140,0.126,0.200,0.192,0.205,0.111,0.072,west-northwest,2.1,No
2023/06/16,19:30,0.139,0.126,0.199,0.192,0.204,0.111,0.072,west-northwest,5.2,No
2023/06/16,19:40,0.139,0.126,0.199,0.191,0.204,0.111,0.073,west-northwest,4.9,No
2023/06/16,19:50,0.140,0.125,0.198,0.191,0.206,0.111,0.072,west-northwest,5.0,No
2023/06/16,20:00,0.139,0.127,0.199,0.191,0.204,0.110,0.072,west-northwest,4.7,No
2023/06/16,20:10,0.140,0.126,0.199,0.192,0.205,0.110,0.072,west-northwest,6.9,No
2023/06/16,20:20,0.138,0.126,0.200,0.191,0.203,0.110,0.072,west-northwest,4.9,No
2023/06/16,20:30,0.140,0.126,0.197,0.192,0.205,0.111,0.073,west-northwest,4.2,No
2023/06/16,20:40,0.139,0.126,0.200,0.191,0.204,0.111,0.073,west-northwest,5.2,No
2023/06/16,20:50,0.139,0.126,0.199,0.192,0.205,0.112,0.072,west-northwest,4.9,No
2023/06/16,21:00,0.140,0.127,0.199,0.191,0.205,0.111,0.072,northwest,4.7,No
2023/06/16,21:10,0.139,0.127,0.199,0.192,0.204,0.112,0.073,northwest,4.5,No
2023/06/16,21:20,0.140,0.126,0.200,0.191,0.204,0.112,0.072,west-northwest,4.0,No
2023/06/16,21:30,0.139,0.127,0.200,0.193,0.203,0.111,0.073,west-northwest,4.1,No
2023/06/16,21:40,0.140,0.127,0.199,0.191,0.206,0.110,0.072,west,3.5,No
2023/06/16,21:50,0.139,0.126,0.200,0.193,0.203,0.112,0.073,west-northwest,3.5,No
2023/06/16,22:00,0.140,0.126,0.199,0.191,0.206,0.110,0.073,west-northwest,2.4,No
2023/06/16,22:10,0.138,0.128,0.200,0.193,0.204,0.112,0.073,west,0.9,No
2023/06/16,22:20,0.140,0.127,0.200,0.192,0.205,0.110,0.072,west,0.6,No
2023/06/16,22:30,0.139,0.127,0.199,0.193,0.204,0.112,0.073,-,CALM,No
2023/06/16,22:40,0.140,0.127,0.199,0.190,0.205,0.110,0.073,-,CALM,No
2023/06/16,22:50,0.140,0.127,0.200,0.193,0.204,0.111,0.073,west-northwest,2.3,No
2023/06/16,23:00,0.140,0.127,0.200,0.192,0.204,0.111,0.073,northwest,3.3,No
2023/06/16,23:10,0.139,0.126,0.200,0.192,0.204,0.112,0.073,north-northwest,2.0,No
2023/06/16,23:20,0.140,0.127,0.199,0.192,0.204,0.111,0.072,north-northwest,1.3,No
2023/06/16,23:30,0.139,0.127,0.199,0.193,0.205,0.112,0.073,north,1.5,No
2023/06/16,23:40,0.140,0.128,0.199,0.192,0.204,0.111,0.072,north-northwest,2.1,No
2023/06/16,23:50,0.140,0.127,0.198,0.192,0.204,0.111,0.072,north,2.1,No
